Regional Weather Roundup
Issued by NWS

Home | Current Version | Previous Version | Graphics & Text | Print | Product List | Glossary On
Versions: 1 2 3 4 5 6 7 8 9 10 11 12 13 14 15 16 17 18 19 20 21 22 23 24 25 26 27 28 29 30 31 32 33 34 35 36 37 38 39 40 41 42 43 44 45 46 47 48 49 50
000
ASUS43 KLSX 211007
RWRMO

WEATHER SUMMARY FOR MISSOURI
NATIONAL WEATHER SERVICE SPRINGFIELD MO
400 AM CST TUE NOV 21 2017

NOTE: "FAIR" INDICATES FEW OR NO CLOUDS BELOW 12,000 FEET WITH NO
       SIGNIFICANT WEATHER AND/OR OBSTRUCTIONS TO VISIBILITY.
       CURRENT SKY AND/OR WEATHER CONDITIONS ARE NOT AVAILABLE FOR
       CHILLICOTHE AND FARMINGTON.

MOZ001>031-035>038-043-044-053-054-211100-
...NORTHERN AND WESTERN MISSOURI...

CITY           SKY/WX    TMP DP  RH WIND       PRES   REMARKS
KANSAS CTY INT MOCLDY    44  32  62 SW10      29.75F
KANSAS C DTWN  PTCLDY    50  31  48 SW9       29.76F
LEE`S SUMMIT   CLEAR     46  32  58 SW9       29.76F
ST JOSEPH      PTCLDY    32  27  81 CALM      29.75R
CHILLICOTHE      N/A     41  31  67 CALM      29.75S
KIRKSVILLE     PTCLDY    44  32  62 SW7       29.74S

$$
MOZ066>068-077>081-088>096-101>105-211100-
...SOUTHWEST MISSOURI...

CITY           SKY/WX    TMP DP  RH WIND       PRES   REMARKS
SPRINGFIELD    PTCLDY    42  32  67 S10       29.83S
JOPLIN         PTCLDY    48  34  58 S10       29.82F
BRANSON        CLOUDY    46  30  53 CALM      29.86S

$$
MOZ032>034-039>042-045>050-055>058-069>072-211100-
...CENTRAL MISSOURI...

CITY           SKY/WX    TMP DP  RH WIND       PRES   REMARKS
COLUMBIA       MOCLDY    44  32  62 S8        29.79F
JEFFERSON CITY PTCLDY    45  31  58 E6        29.81F
ROLLA          CLEAR     43  30  60 S14       29.84F
SEDALIA        PTCLDY    49  34  56 SW16      29.79F
WHITEMAN AFB   CLEAR     46  32  58 SW12      29.74S
WARRENSBURG    MOCLDY    46  32  57 S12G17    29.78S
OSAGE BEACH    MOCLDY    44  31  60 S6        29.83F

$$
MOZ051-052-059>065-211100-
...EAST CENTRAL MISSOURI...

CITY           SKY/WX    TMP DP  RH WIND       PRES   REMARKS
ST LOUIS INTL  PTCLDY    45  29  53 S9        29.83F
SPIRIT OF STL  CLEAR     48  30  49 SW9       29.83S
ST CHARLES     CLEAR     41  29  62 S9        29.83S

$$
MOZ072>076-082>087-097>100-106>115-211100-
...SOUTH CENTRAL AND SOUTHEAST MISSOURI...

CITY           SKY/WX    TMP DP  RH WIND       PRES   REMARKS
CAPE GIRARDEAU CLOUDY    38  29  70 S9        29.96F
FARMINGTON     CLEAR     38  28  67 S5        29.90S
POPLAR BLUFF   PTCLDY    38  29  70 S7        29.94F
WEST PLAINS    CLEAR     38  27  64 S3        29.89S

$$


USA.gov is the U.S. government's official web portal to all federal, state and local government web resources and services.